This demonstration page uses our WeatherBlox Daily Observations layout. Learn more.

Left ArrowRight Arrow

47.50024, -111.30081

Hourly Observations for May 31, 2021

Temp ( °F °C ) Dew Point ( °F °C ) Humidity (%) Winds ( mph kmh ) Pressure ( in mb ) Visibility ( mi km ) Precip ( " mm )
12:53 am 00:53 Clear 44 6.7 36 2.2 73 73 SW 6 9 30.09 1019 10 16 0.00 0.00
1:53 am 01:53 Clear 51 10.6 40 4.4 66 66 S 9 15 30.06 1018 10 16 0.00 0.00
2:53 am 02:53 Clear 46 7.8 38 3.3 73 73 SW 12 19 30.08 1019 10 16 0.00 0.00
3:53 am 03:53 Clear 44 6.7 37 2.8 76 76 SSW 12 19 30.08 1019 10 16 0.00 0.00
4:53 am 04:53 Clear 45 7.2 37 2.8 74 74 SW 9 15 30.08 1019 10 16 0.00 0.00
5:53 am 05:53 Sunny 44 6.7 37 2.8 76 76 WSW 12 19 30.09 1019 10 16 0.00 0.00
6:53 am 06:53 Sunny 47 8.3 39 3.9 74 74 SW 8 13 30.10 1019 10 16 0.00 0.00
7:53 am 07:53 Sunny 56 13.3 38 3.3 51 51 SW 13 20 30.09 1019 10 16 0.00 0.00
8:53 am 08:53 Sunny 61 16.1 41 5 48 48 SSW 10 17 30.09 1019 10 16 0.00 0.00
9:53 am 09:53 Sunny 67 19.4 38 3.3 35 35 SW 12 19 30.09 1019 10 16 0.00 0.00
10:53 am 10:53 Sunny 70 21.1 40 4.4 34 34 WSW 10 17 30.07 1018 10 16 0.00 0.00
11:53 am 11:53 Sunny 73 22.8 36 2.2 26 26 WNW 8 13 30.06 1018 10 16 0.00 0.00
12:53 pm 12:53 Mostly Sunny 75 23.9 38 3.3 26 26 NNW 10 17 30.08 1019 10 16 0.00 0.00
1:53 pm 13:53 Mostly Sunny 75 23.9 38 3.3 26 26 NW 10 17 30.06 1018 10 16 0.00 0.00
2:53 pm 14:53 Mostly Sunny 78 25.6 38 3.3 24 24 W 16 26 30.06 1018 10 16 0.00 0.00
3:53 pm 15:53 Mostly Cloudy 76 24.4 39 3.9 26 26 NNW 16 26 30.07 1018 10 16 0.00 0.00
4:53 pm 16:53 Mostly Cloudy 76 24.4 40 4.4 27 27 NNE 13 20 30.07 1018 10 16 0.00 0.00
5:53 pm 17:53 Sunny 76 24.4 40 4.4 27 27 NW 9 15 30.08 1019 10 16 0.00 0.00
6:53 pm 18:53 Sunny 75 23.9 39 3.9 27 27 N 9 15 30.08 1019 10 16 0.00 0.00
7:53 pm 19:53 Sunny 72 22.2 41 5 33 33 NNE 10 17 30.07 1018 10 16 0.00 0.00
8:53 pm 20:53 Sunny 64 17.8 42 5.6 45 45 NE 8 13 30.09 1019 10 16 0.00 0.00
9:53 pm 21:53 Clear 62 16.7 41 5 46 46 ESE 5 7 30.10 1019 10 16 0.00 0.00
10:53 pm 22:53 Clear 59 15 41 5 51 51 SE 6 9 30.11 1020 10 16 0.00 0.00
11:53 pm 23:53 Clear 58 14.4 40 4.4 51 51 SSE 7 11 30.11 1020 10 16 0.00 0.00

Powered by AerisWeather